Flag for Azerbaijan Weather past 2 weeks in Ganja, Azerbaijan

Now
82 °F

Passing clouds.


Feels Like: 81 °F
Forecast: 73 / 97 °F
Wind: No wind

Location: Gyanca Airport

Current Time: Jul 31, 2015 at 1:32:05 AM

Latest Report: Jul 31, 2015 at 1:00 AM


Visibility: N/A

Pressure: 29.86 "Hg

Humidity: 32%

Dew point: 50 °F

Location of GanjaLocation

Historic Weather in Ganja — Graph

°F

Ganja temperature yesterday

Maximum temperature yesterday: 99 °F (at 4:00 PM)
Minimum temperature yesterday: 75 °F (at 5:00 AM)
Average temperature yesterday: 87 °F

Past Weeks' High & Low Weather Summary

 TemperatureHumidityPressure
High102 °F (Jul 29, 6:30 PM)83% (Jul 21, 7:00 AM)30.04 "Hg (Jul 21, 7:00 AM)
Low63 °F (Jul 21, 6:00 AM)12% (Jul 29, 6:30 PM)29.68 "Hg (Jul 27, 4:00 PM)
Average81 °F44%29.88 "Hg
* Reported Midnight between Jul 15 and Jul 16 — Jul 31 12:30 AM, Ganja, Weather by CustomWeather, © 2015

Note: Actual official high and low records may vary slightly from our data, if they occured in-between our weather recording intervals... More about our weather records

Advertising

Ganja weather history for previous 24 hours

 ConditionsComfort  
Time TempWeatherWind HumidityBarometerVisibility
12:30 AM
Fri, Jul 31
82 °FPassing clouds.3 mph32%29.86 "HgN/A
12:00 AM86 °FPassing clouds.3 mph27%29.86 "HgN/A
11:30 PM
Thu, Jul 30
86 °FPassing clouds.7 mph29%29.86 "HgN/A
11:00 PM88 °FPassing clouds.5 mph29%29.86 "HgN/A
10:30 PM88 °FPassing clouds.5 mph31%29.86 "HgN/A
10:00 PM90 °FPassing clouds.6 mph27%29.86 "HgN/A
9:30 PM90 °FPassing clouds.7 mph26%29.83 "HgN/A
9:00 PM91 °FPassing clouds.8 mph24%29.83 "HgN/A
8:30 PM93 °FPassing clouds.10 mph23%29.83 "HgN/A
8:00 PM95 °FPassing clouds.12 mph22%29.83 "HgN/A
7:30 PM97 °FPassing clouds.14 mph20%29.83 "HgN/A
7:00 PM97 °FPassing clouds.14 mph20%29.83 "HgN/A
6:30 PM97 °FPassing clouds.13 mph20%29.83 "HgN/A
6:00 PM99 °FPassing clouds.14 mph19%29.83 "HgN/A
5:30 PM99 °FPassing clouds.13 mph19%29.86 "HgN/A
5:00 PM99 °FPassing clouds.12 mph18%29.86 "HgN/A
4:30 PM99 °FPassing clouds.12 mph18%29.86 "HgN/A
4:00 PM99 °FPassing clouds.10 mph18%29.86 "HgN/A
3:30 PM97 °FPassing clouds.10 mph19%29.86 "HgN/A
3:00 PM95 °FPassing clouds.7 mph22%29.89 "HgN/A
2:30 PM95 °FPassing clouds.5 mph25%29.89 "HgN/A
2:00 PM93 °FPassing clouds.6 mph24%29.89 "HgN/A
1:30 PM91 °FPassing clouds.6 mph26%29.92 "HgN/A
1:00 PM91 °FPassing clouds.7 mph26%29.92 "HgN/A
12:30 PM90 °FPassing clouds.5 mph29%29.92 "HgN/A
12:00 PM88 °FPassing clouds.7 mph33%29.95 "HgN/A
11:30 AM88 °FPassing clouds.7 mph33%29.95 "HgN/A
11:00 AM86 °FPassing clouds.6 mph35%29.95 "HgN/A
10:30 AM84 °FPassing clouds.3 mph40%29.95 "HgN/A
10:00 AM82 °FPassing clouds.2 mph42%29.95 "HgN/A
9:30 AM82 °FPassing clouds.3 mph42%29.95 "HgN/A
8:30 AM81 °FPassing clouds.8 mph42%29.95 "HgN/A
8:00 AM79 °FPassing clouds.6 mph39%29.92 "HgN/A
7:30 AM77 °FPassing clouds.6 mph44%29.92 "HgN/A
7:00 AM75 °FPassing clouds.6 mph50%29.92 "HgN/A
6:30 AM75 °FPassing clouds.6 mph47%29.92 "HgN/A
6:00 AM75 °FPassing clouds.2 mph47%29.89 "HgN/A
5:30 AM77 °FPassing clouds.7 mph44%29.89 "HgN/A
5:00 AM75 °FPassing clouds.5 mph50%29.89 "HgN/A
4:30 AM77 °FPassing clouds.3 mph42%29.86 "HgN/A
4:00 AM79 °FPassing clouds.6 mph42%29.86 "HgN/A
3:30 AM77 °FPassing clouds.6 mph47%29.86 "HgN/A
3:00 AM79 °FPassing clouds.8 mph45%29.86 "HgN/A
2:30 AM79 °FPassing clouds.9 mph45%29.86 "HgN/A
2:00 AM81 °FPassing clouds.8 mph42%29.86 "HgN/A
1:30 AM82 °FPassing clouds.8 mph40%29.86 "HgN/A
1:00 AM84 °FPassing clouds.7 mph40%29.83 "HgN/A
Weather by CustomWeather, © 2015

See weather overviewHow to use our weather pages